CZ-3C DEB, 40195

Orbit data source: Space-Track

CZ-3C DEB, 40195 is space debris in HEO originally from a launch on Fri, 24 Feb 2012 UTC launched from the Xichang Space Center, China (XSC). Debris objects in space refer to the collection of defunct objects orbiting the Earth. Examples of debris include non-operational satellites, rocket bodies, and fragments generated from explosions, collisions, or faulty payload assembly.

Loading next visibility...
Identifier
40195, 2012-008E
Orbit
HEO
Country
Flag of CNCN / PRC
Related business
Manufacturer
CALT
Mission
Spacecraft
Bus & Motor
Unknown
Mass
Unknown
Launch date (UTC)
2012-02-24 (14 years ago)
Launch vehicle
Unknown
Launch site
Xichang Space Center, China (XSC)
Object type
Payload
Rocket body
Debris
Shape & HBR
Unknown shape, 0.2 m
Radar Cross Section
Medium (>0.1 m² and <1 m²)

Expand to show TLE details & history
Last TLE update: 10 hours ago

TLE from 10 hours ago
0 CZ-3C DEB
1 40195U 12008E   25353.96633059  .00000806  00000-0  27354-2 0  9996
2 40195  20.1601 254.2269 7112936  78.4328 347.4451  2.39584127 12835
Epoch: 2025-12-19T23:11Z
TLE epoch observation values (Epoch: 2025-12-19T23:11:30.962Z)
Latitude
0.00003°
Longitude
177.70465°
Altitude
3,820.677 km
Speed
7.827 km/s
True Right ascension
16h 57m 32s
True Declination
0° 00' 00"
Sunlit
Object was in daylight at epoch
Visualization orbit readout
Latitude
Unknown
Longitude
Unknown
Altitude
Unknown
Speed
Unknown
Apparent Right ascension
Unknown
Apparent Declination
Unknown
Sunlit
N/A
Visualization observer readout
Local Sidereal Time
08:26:44
Azimuth
Unknown
Elevation
Unknown
Doppler factor
Unknown
Orbital elements
Apogee altitude
34,002.138 km
Perigee altitude
434.279 km
Semi-major axis
23,596.345 km
Eccentricity
0.71129
Inclination
20.1601°
RAAN
254.2269°
Arg. of periapsis
78.4328°
True anomaly
281.36079°
Mean anomaly
347.4451°
Eccentric anomaly
322.81199°
Mean motion
0.59879 °/min
Orbital period
601.21 mins
BSTAR
0.0027354
Loading maneuver chart data...
Computing Atmospheric mass density...
Loading historical data...
Loading historical data...
Loading historical data...
Loading historical data...
Loading historical data...
Loading historical data...
Loading historical data...

Documentation

Showing up to 5 results
|